默认 日期 大小 文件数 浏览量 最新下载 xml
natacha磁力链接相关资源由用户搜索指令自动获取,结果来源于网络,本站不存储任何资料,亦不承担任何责任,请于24小时内删除,搜索到265个磁力,用时0ms。
    {"[TBA] Natacha V.01": {"Natacha 01h.avi": 108446712}, "[TBA] Natacha V.02": {"Natacha 02h.avi ... ": 126602220}, "[TBA] Natacha V.03 ...
创建时间: 2018-12-08 10:38:37 大小:353.27 MB 文件数量:5 热度:22 最近下载:2025-08-03 09:20:08
    {"RARBG.com.txt": 34, "straightintheass.15.06.09.natacha.caliente.milf.gets.her.butt.drilled.fr.mp4": 551189157, "straightintheass.15.06.09.natacha.caliente.milf.gets.her.butt.drilled.fr.nfo": 5236}
创建时间: 2018-12-09 22:10:05 大小:525.66 MB 文件数量:3 热度:18 最近下载:2025-01-16 17:05:02
    {"01. Intro.mp3": 1585341, "02. Makaan.mp3": 7110573, "16. Taalet.mp3": 5554959, "14. Ghoroub.mp3": 3771697, "06. Riverman.mp3": 9026817, "07. Batkallim.mp3": 10233274, "08. Mounqaliba.mp3": 5995235, "04. Bada Al Fajr.mp3": 3366902, "11. Lahazat Nashwa.mp3 ...
创建时间: 2018-12-10 05:45:52 大小:83.58 MB 文件数量:18 热度:9 最近下载:2025-01-04 08:53:03
    {"Natacha, baronne vicieuse (1982) ~ French Classic ~ [RRG]{Brego}.avi": 726251152}
创建时间: 2018-12-11 02:26:48 大小:692.61 MB 文件数量:1 热度:16 最近下载:2025-02-10 21:53:02
    {"04 - Janamaan.mp3": 7575680, "09 - Daymalhum.mp3": 8466935, "06 - Mans world.mp3": 6730314, "12 - This realm.mp3": 5515307, "13 - Le Printemps.mp3": 6383922, "01 - Adams lullaby.mp3": 8583545, "07 - Layali (feat z).mp3": 5283967, "14 - Like the Last Drop ...
创建时间: 2018-12-12 14:50:02 大小:98.36 MB 文件数量:16 热度:6 最近下载:2024-12-09 17:25:01
    {"foto.jpg": 74157, "Natacha Kudritskaya - Rameau (2012) [FLAC]": {"cover. ... Double des Niais.flac": 19967615}, "Natacha Kudritskaya - Nocturnes (2015) [FLAC]": {"cover ...
创建时间: 2018-12-12 23:46:29 大小:753.01 MB 文件数量:41 热度:6 最近下载:2024-12-07 14:28:02
    {"nfo.txt": 4340, "90103.jpg": 152279, "Natacha.avi": 1159759872, "90103 (1).jpg": 187715, "Natacha.avi.jpg": 271271}
创建时间: 2018-12-14 08:36:53 大小:1.08 GB 文件数量:5 热度:22 最近下载:2025-01-16 05:52:04
    {"16 Crow.mp3": 2639370, "05 Nanny.mp3": 2176690, "скан 1.jpg": 46889, "скан 2.jpg": 33303, "01 Katioucha.mp3": 2166659, "11 Oy Da Nou.mp3": 2045450, "02 Boumbarach.mp3": 3030998, "17 My Darling.mp3": 2610531, "06 I Loose You.mp3": 1619550, "07 The Cossack ...
创建时间: 2018-12-17 15:32:16 大小:39.74 MB 文件数量:19 热度:6 最近下载:2025-01-04 11:31:03
    {"Front.jpg": 26286, "02 - Aqaba.mp3": 11321813, "05 - Ezzay.mp3": 12934091, "04 - Bahlam.mp3": 11123285, "06 - Bastet.mp3": 15299742, "10 - Kifaya.mp3": 21784378, "09 - Bilaadi.mp3": 15358258, "03 - Mistaneek.mp3": 10435748, "08 - Mahlabeya.mp3": 8584189, ...
创建时间: 2018-12-19 01:30:41 大小:141.51 MB 文件数量:13 热度:8 最近下载:2025-03-09 09:35:02
    {"Scans": {"Back.jpg": 132665, "Front.jpg": 148014, "Box0001.jpg": 282268, "Box0002.jpg": 243126, "Livret0001.jpg": 196331, "Livret0002.jpg": 216171, "Livret0003.jpg": 226661, "Livret0004.jpg": 283603, "Livret0005.jpg": 247080, "Livret0006.jpg": 273445, " ...
创建时间: 2018-12-19 06:29:42 大小:251.45 MB 文件数量:25 热度:8 最近下载:2025-01-22 03:56:04
    {"The Most Trusted VPN.txt": 208, "The Best Video Game Sale.txt": 70, "Torrent Downloaded From 1337x.to.txt": 36, "Torrent Downloaded From Katcr.co.txt": 52, "Toticos Dominican Porn - 19Yo Sexy Teen Natacha Pt 2 XXX AdultKinG.mp4": 55256209}
创建时间: 2018-12-19 06:48:00 大小:52.7 MB 文件数量:5 热度:20 最近下载:2025-08-04 22:15:13
    ... }, "natacha-p01": {"natacha-p01-001.jpg": 657784, "natacha-p01-002.jpg": 776688, "natacha-p01 ... , "natacha-p01-142.jpg": 361477, "natacha-p01-143.jpg": 354395}, "natacha-p02": {"natacha-p02 ...
创建时间: 2018-12-20 01:07:09 大小:433.91 MB 文件数量:881 热度:22 最近下载:2025-03-15 23:54:03
    ... - Heaven's Breath.flac": 32983710, "Natacha Atlas - Myriad Road.cue": 1602 ... , "Natacha Atlas - Myriad Road.log": 12500, "Natacha Atlas - Myriad Road ...
创建时间: 2018-12-20 06:59:21 大小:336.23 MB 文件数量:30 热度:9 最近下载:2025-02-18 13:49:02
    {"1997 - Halim": {"Front.jpg": 1022670, "12 - Agib.mp3": 19200012, "04 - Leyli.mp3": 9838773, "05 - Kidda.mp3": 13347540, "10 - Gafsa.mp3": 16833320, "03 - Amulet.mp3": 12918089, "09 - Andeel.mp3": 15201191, "02 - Moustahil.mp3": 9487695, "07 - Ya Weledi. ...
创建时间: 2018-12-20 15:22:25 大小:1.46 GB 文件数量:134 热度:13 最近下载:2025-03-26 22:51:06
    {"NFO.nfo": 387, "Natacha.avi": 733810688}
创建时间: 2018-12-20 20:48:53 大小:699.82 MB 文件数量:2 热度:15 最近下载:2025-07-18 14:15:01
    {"01-Intro.flac": 3139089, "02-Makaan.flac": 27053021, "16-Taalet.flac": 21315168, "14-Ghorous.flac": 14122559, "06-River Man.flac": 34298972, "07-Batkallim.flac": 36955229, "08-Mounqaliba.flac": 18830317, "04-Bada Alfajr.flac": 7490131, "09-Le Cor Le Vent ...
创建时间: 2018-12-20 23:00:09 大小:291.42 MB 文件数量:18 热度:8 最近下载:2025-01-14 13:47:02
    {"Natacha.mp4": 279647567}
创建时间: 2018-12-22 00:26:53 大小:266.69 MB 文件数量:1 热度:19 最近下载:2025-08-01 13:28:01
    {"RARBG.com.txt": 34, "sitc-130203n.mp4": 2008853706, "sitc-130203n.nfo": 3624, "GirlsOutWest.13.02.03.Natacha.Self.Shot.in.Swimming.Pool.XXX.1080p.MP4-SITC.nfo": 3624}
创建时间: 2018-12-22 10:22:09 大小:1.87 GB 文件数量:4 热度:17 最近下载:2025-03-31 04:14:02
    {"RARBG.com.txt": 34, "pdmln.15.10.20.natacha.guapa.fr.mp4": 2633574645, "pdmln.15.10.20.natacha.guapa.fr.nfo": 5193}
创建时间: 2018-12-22 19:35:38 大小:2.45 GB 文件数量:3 热度:16 最近下载:2025-04-09 19:42:02
    {"Front.jpg": 57355, "Atlas, The Natacha & Marc Eagleton Project - Foretold In ... Dreams.cue": 1035, "Atlas, The Natacha & Marc Eagleton Project - Foretold In ... Dreams.m3u": 2167, "Atlas, The Natacha & Marc Eagleton Project - Foretold In ...
创建时间: 2018-12-22 23:38:59 大小:415.89 MB 文件数量:4 热度:7 最近下载:2024-12-29 11:12:01